User: anonymous   Login
Location: Pl�tzky
(52.0521°N, 11.8020°E)
Time: 01:42:08
(UTC+00:00)
Language:

Cosmos 2228 Rocket - Orbit

View from above orbital plane
View from above orbital plane
View from above satellite
View from above satellite

Ground track
Ground track

The orbit data is extracted from the following two-line orbital elements,

1 22287U 92094B   20021.20169025 +.00000018 +00000-0 -70400-6 0  9992
2 22287 082.5247 274.1041 0026070 105.1819 255.2279 14.78136746437564
Epoch (UTC): 21 January 2020 04:50:26
Eccentricity: 0.0026070
inclination: 82.5247°
perigee height: 617 km
apogee height: 653 km
right ascension of ascending node: 274.1041°
argument of perigee: 105.1819°
revolutions per day: 14.78136746
mean anomaly at epoch: 255.2279°
orbit number at epoch: 43756

The dashed part of the orbit path shows where the satellite is in the earth's shadow,  

DLR